SCP
0 0 0 0 0 0 0 0 0 0 0 0 0 0 0 0 0 0 0 0 0 0 0 0 0 0 -0 -0 0 0 0 0 0 -0 0 0 0 0 0 0 0 0 0 0
0 0 0 0 0 0 0 0 0 0 0 0 0 0 0 0 0 0 0 0 0 0 0 0 0 -0 -0 0 0 0 0 0 0 0 0 0 0 0 0 0 0 0 0 0
0 0 0 0 0 0 0 0 0 0 0 0 0 0 0 0 0 0 0 0 0 0 0 0 0 -0 0 0 0 0 0 0 0 0 0 0 0 0 0 0 0 0 0 0
0 0 0 0 0 0 0 0 0 0 0 0 0 0 0 0 0 0 0 0 0 0 0 0 0 0 0 0 0 0 0 0 0 0 0 0 0 0 0 0 0 0 0 0
0 0 0 0 0 0 0 0 0 0 0 0 0 0 0 0 0 0 0 0 0 0 0 0 0 0 0 0 0 0 0 0 0 0 0 0 0 0 0 0 0 0 0 0
0 0 0 0 0 0 0 0 0 0 0 0 0 0 0 0 0 0 0 -0 -0 0 0 0 0 0 0 0 0 0 0 0 0 0 0 0 0 0 0 0 0 0 0 0
0 0 0 0 0 0 0 0 0 0 0 0 0 0 0 0 0 0 0 -0 -0 -0 0 0 0 0 0 0 0 0 0 0 0 0 0 0 0 0 0 0 0 0 0 0
0 0 0 0 0 0 0 0 0 0 0 0 0 0 0 0 0 0 0 -0 -0 -0 0 0 0 0 0 0 0 0 0 0 0 0 0 0 0 0 0 0 0 0 0 0
0 0 0 0 0 0 0 0 0 0 0 0 0 0 0 0 0 0 0 0 0 0 0 0 0 0 0 0 0 0 0 0 0 0 0 0 0 0 0 0 0 0 0 0
0 0 0 0 0 0 0 0 0 0 0 0 0 0 0 0 0 0 0 0 0 0 0 0 0 0 0 0 0 0 0 0 0 0 0 0 0 0 0 0 0 0 0 0
0 0 0 0 0 0 0 0 0 0 0 0 0 0 0 0 0 0 0 0 0 0 0 0 0 0 0 0 0 0 0 0 0 0 0 0 0 0 0 0 0 0 0 0
0 0 0 0 0 0 0 0 0 0 0 0 0 0 0 0 0 0 0 0 0 0 0 0 0 0 0 0 0 0 0 0 0 0 0 0 0 0 0 0 0 0 0 0
0 0 0 0 0 -0 -0 -0 -0 0 0 0 0 0 0 0 0 0 0 0 0 0 0 0 0 0 0 0 0 0 0 0 0 0 0 0 0 0 0 0 0 0 0 0
0 0 0 0 -0 -0 -0 -0 -0 -0 0 -0 0 0 0 0 0 0 0 0 0 0 0 0 0 0 0 0 0 0 0 0 0 0 0 0 0 0 0 0 0 0 0 0
0 0 0 0 -0 -0 -0 -0 -0 -0 0 0 0 0 0 0 0 0 0 0 0 0 0 0 0 0 0 0 0 0 0 0 0 0 0 0 0 0 0 0 0 0 0 0
0 0 0 0 0 0 -0 -0 -0 0 0 0 0 0 0 0 0 0 0 0 0 0 0 0 0 0 0 0 0 0 0 0 0 0 0 0 0 0 0 0 0 0 0 0
0 0 0 0 0 0 0 0 0 0 0 0 0 0 0 0 0 0 0 0 0 0 0 0 0 0 0 0 0 0 0 0 0 0 0 0 0 0 0 0 0 0 0 0
0 0 0 0 0 0 0 0 0 0 0 -0 0 0 0 0 0 0 0 0 0 0 0 0 0 0 0 0 0 0 0 0 0 0 0 0 0 0 0 0 0 0 0 0
0 0 0 0 0 0 0 0 0 -0 -0 -0 0 0 0 0 0 0 0 0 0 0 0 0 0 0 0 0 0 0 0 0 0 0 0 0 0 0 0 0 0 0 0 0
0 0 0 0 0 0 0 0 0 0 0 0 0 0 0 0 0 0 0 0 0 0 0 0 0 0 0 0 0 0 0 0 0 0 0 0 0 0 0 0 0 0 0 0
0 0 0 0 0 0 0 0 0 0 0 0 0 0 0 0 0 0 0 0 0 0 0 0 0 0 0 0 0 0 0 0 0 0 0 0 0 0 0 0 0 0 0 0
0 0 0 0 0 0 0 0 0 0 0 0 0 0 0 0 0 0 0 0 0 0 0 0 0 0 0 0 0 0 0 0 0 0 0 0 0 0 0 0 0 0 0 0
0 0 0 0 0 0 0 0 0 0 0 0 0 0 0 0 0 0 0 0 0 0 0 0 0 0 0 0 0 0 0 0 0 0 0 0 0 0 0 0 0 0 0 0
0 0 0 0 0 0 0 0 0 0 0 0 0 0 0 0 0 0 0 0 0 0 0 0 0 0 0 0 0 0 0 0 0 0 0 0 0 0 0 0 0 0 0 0
0 0 0 0 0 0 0 0 0 0 0 0 0 0 0 0 0 0 0 0 0 0 0 0 0 0 0 0 0 0 0 0 0 0 0 0 0 0 0 0 0 0 0 0
0 0 0 0 0 0 0 0 0 0 0 0 0 0 0 0 0 0 0 0 0 0 0 0 0 0 0 0 0 0 0 0 0 0 0 0 0 0 0 0 0 0 0 0
Wind_Speed
2 3 4 7 8 6 3 2 2 1 1 3 3 4 4 4 4 4 5 5 5 5 4 4 5 4 4 3 4 4 3 3 2 1 1 1 0 1 1 2 2 2 2 3
2 4 8 3 3 2 2 2 2 1 2 3 2 1 1 2 3 4 5 5 6 5 4 5 5 5 5 5 5 4 3 2 2 1 1 1 0 1 1 2 3 3 3 3
5 7 2 1 1 2 2 3 3 3 3 4 1 1 1 1 1 2 4 5 5 7 7 7 7 7 6 6 6 5 4 3 2 2 1 1 1 2 2 2 3 3 4 4
4 4 1 1 3 4 2 2 4 5 4 2 3 2 3 1 2 3 5 5 7 7 7 7 7 7 7 7 5 4 4 4 3 3 2 2 1 2 3 2 3 4 4 4
4 2 2 3 3 4 2 5 6 5 4 3 4 1 6 1 3 5 6 6 7 7 8 8 8 7 6 5 4 4 4 3 3 2 2 2 2 3 2 2 4 4 4 4
4 2 2 1 3 5 7 7 6 6 5 3 2 1 6 3 5 4 4 6 7 6 6 6 5 5 4 4 4 4 4 3 2 2 2 3 4 4 4 4 4 4 3 4
6 4 1 3 4 3 4 6 5 5 4 3 1 1 9 7 6 6 6 6 5 5 5 5 5 5 4 4 4 3 3 3 2 2 3 3 4 4 5 5 5 5 4 3
2 6 3 2 5 6 3 7 6 3 3 3 1 4 8 6 5 5 6 5 4 4 4 5 5 5 5 5 4 3 3 3 3 3 3 3 4 3 4 5 5 5 4 5
2 5 4 1 2 8 6 3 5 7 2 1 4 6 9 3 4 3 4 4 5 4 4 4 4 4 4 4 3 3 3 3 3 4 4 4 4 4 5 6 5 5 5 6
5 3 5 3 4 3 5 8 6 5 4 1 4 4 5 6 6 5 4 5 5 3 3 4 3 3 2 2 2 2 3 3 4 4 4 4 5 5 5 5 6 6 6 6
3 2 5 4 1 1 3 4 6 5 5 5 3 8 8 8 8 7 7 6 6 6 5 4 3 2 2 1 1 2 3 3 4 5 4 5 5 5 5 5 6 6 6 6
3 5 2 5 4 1 1 4 7 5 3 4 4 10 6 7 7 7 7 6 5 5 4 3 2 2 1 2 3 4 4 4 5 4 4 5 5 5 5 6 7 6 7 7
6 5 3 8 8 4 1 2 4 6 6 5 4 9 3 1 3 5 6 6 5 5 4 2 2 2 3 4 4 5 5 5 5 4 4 5 6 6 6 7 7 7 7 8
7 5 6 5 7 3 4 2 5 6 5 5 8 8 6 4 5 5 5 5 5 4 4 3 3 4 4 4 5 5 6 5 5 4 5 6 6 7 7 7 7 8 7 8
6 4 5 6 5 3 5 7 5 7 8 9 8 8 10 8 8 6 5 5 4 4 5 6 6 5 5 5 5 5 6 5 4 4 5 6 7 6 7 7 8 8 8 9
4 4 3 3 2 3 5 6 4 5 4 6 4 8 7 3 3 3 5 6 7 7 7 7 7 6 6 6 6 5 6 5 4 5 6 7 6 6 7 7 8 8 8 8
4 6 4 4 4 3 5 4 3 4 5 7 8 8 3 4 7 8 8 8 9 9 8 8 7 7 7 6 6 6 6 5 4 6 7 7 6 7 8 8 8 8 9 8
7 6 4 2 1 4 9 4 4 4 4 6 6 5 6 7 5 4 6 9 9 9 8 8 7 6 6 5 5 5 5 5 5 6 7 7 6 7 8 8 8 9 8 8
5 8 5 4 3 6 9 4 5 4 5 5 6 5 3 3 3 4 7 9 10 9 8 8 7 6 5 6 5 4 5 5 5 7 7 7 6 7 8 9 9 8 8 9
5 5 6 4 4 6 10 4 3 4 5 6 7 7 6 6 2 8 7 9 9 8 6 6 5 4 5 6 4 4 6 5 7 7 7 7 6 7 9 9 9 8 8 9
2 3 3 4 4 9 9 2 5 3 10 6 10 10 11 11 11 6 4 7 9 8 7 6 6 5 7 5 4 5 6 7 8 6 6 7 7 7 8 8 8 8 8 8
3 3 3 4 3 8 3 6 8 11 5 4 9 11 13 13 8 5 5 7 8 8 7 7 6 7 6 5 5 6 8 8 6 6 6 7 7 7 7 7 8 8 7 8
5 7 6 8 8 8 4 8 8 4 5 6 9 10 13 11 9 8 8 9 9 9 8 7 7 7 6 5 6 7 8 6 5 5 7 7 8 7 7 7 8 8 6 6
4 3 4 4 9 8 7 7 7 7 9 9 9 9 11 12 11 11 9 9 9 9 8 7 7 7 7 6 7 8 7 5 4 6 7 6 7 8 7 6 6 6 6 6
6 3 3 5 9 8 8 6 6 6 6 6 6 8 11 12 11 11 10 10 10 9 7 7 8 9 9 6 7 7 6 4 5 6 6 7 6 7 7 7 6 7 7 7
3 5 5 8 8 4 7 8 6 5 5 6 5 5 5 9 10 9 9 8 8 8 7 7 8 8 8 6 7 6 5 5 5 5 6 5 5 6 6 7 8 8 9 11
Wind_Direction
118 98 226 227 208 209 194 188 232 236 88 90 141 161 185 180 178 176 172 177 180 183 187 181 180 178 169 177 180 176 169 170 144 116 112 99 10 336 342 341 346 351 352 353
42 259 243 227 186 183 196 187 183 79 59 86 112 186 194 192 217 203 194 193 197 191 186 194 195 197 198 199 202 202 198 188 174 142 136 141 145 288 289 315 332 344 346 339
210 248 242 151 161 178 234 198 181 155 95 58 60 329 232 259 270 217 211 207 210 202 200 203 204 208 209 212 209 206 204 199 193 164 113 73 37 357 338 328 325 329 332 328
245 258 237 213 222 176 257 224 145 120 103 17 31 312 291 249 264 227 219 213 217 218 210 209 210 213 216 219 209 203 198 199 200 177 172 177 192 252 261 275 290 304 311 314
273 245 225 225 232 163 138 77 84 87 97 50 26 19 295 334 254 239 227 224 223 221 217 216 215 217 219 212 200 196 192 202 204 194 190 194 227 242 271 287 293 297 303 303
255 258 206 186 51 108 120 76 60 54 61 18 339 23 289 261 235 246 234 228 227 224 221 220 216 205 209 195 185 180 182 208 213 214 214 215 240 259 277 284 285 288 292 294
336 332 261 123 94 61 85 85 35 6 12 275 278 257 258 258 237 229 241 243 239 232 220 214 203 194 192 185 183 174 180 219 235 238 245 241 244 248 253 263 266 273 279 280
6 314 269 190 169 166 161 131 149 200 232 278 309 255 258 257 258 246 239 242 245 233 216 208 200 191 188 185 181 179 195 226 244 249 259 261 252 244 251 255 254 259 259 266
181 273 291 242 176 137 138 144 145 122 114 359 293 289 299 263 263 245 232 225 226 219 198 190 185 181 181 178 181 186 198 232 253 256 264 270 266 257 259 264 261 261 262 268
168 256 298 318 82 54 127 137 103 110 132 272 301 281 255 256 246 235 219 214 216 193 178 175 172 169 170 178 186 196 215 238 256 264 263 267 268 266 265 270 272 269 270 270
133 171 310 358 61 173 109 95 103 109 145 152 242 269 228 223 224 218 220 215 204 193 188 183 178 170 169 182 218 245 254 259 268 269 269 274 275 275 275 271 270 271 274 276
127 118 295 290 293 277 180 159 147 147 196 171 180 265 257 231 234 217 219 213 199 190 183 177 176 173 204 243 258 262 265 264 265 268 272 273 276 282 283 279 277 276 276 276
133 102 35 348 344 353 16 130 133 123 117 153 175 263 292 271 220 209 207 201 189 182 174 171 186 220 244 257 265 269 268 265 271 274 276 280 282 280 279 279 281 281 278 279
117 113 153 196 229 263 298 239 153 137 153 197 220 248 282 250 222 215 204 192 183 185 186 196 225 243 253 260 264 269 272 268 272 275 275 277 277 276 278 281 282 280 278 278
116 163 213 235 245 247 255 263 206 193 194 191 228 228 247 231 217 214 200 182 179 196 209 218 226 238 251 261 267 267 270 272 273 275 274 273 277 279 280 281 281 281 279 278
120 169 187 280 269 267 263 268 235 211 197 212 242 258 250 225 169 192 197 188 202 215 222 226 230 236 244 249 257 265 269 270 269 269 272 277 282 283 282 282 284 285 284 282
146 144 143 258 303 355 296 257 227 222 207 185 210 240 204 180 197 208 206 201 209 217 222 225 227 230 236 242 245 253 262 271 271 269 274 279 279 282 283 287 290 287 286 283
143 135 145 186 44 250 250 252 220 221 236 212 229 242 205 209 211 222 201 198 212 218 221 226 226 230 236 238 243 253 265 268 268 272 275 277 277 281 286 288 288 286 284 283
141 135 129 139 187 273 294 264 175 178 261 219 215 223 173 103 57 299 222 202 209 212 213 218 217 218 228 238 242 252 266 268 271 272 274 276 276 282 288 289 288 286 285 286
82 105 120 138 166 228 251 256 161 112 282 235 191 190 164 127 162 256 231 202 215 218 214 215 214 212 230 241 232 239 258 266 267 269 273 276 276 278 282 283 284 283 282 283
56 78 139 167 206 256 254 203 129 171 244 224 190 188 171 184 204 225 210 197 206 210 213 208 203 213 228 232 214 238 254 258 260 269 275 277 276 276 277 279 280 284 286 288
189 173 186 148 184 260 246 147 183 217 234 206 196 192 190 211 223 232 221 211 207 209 211 201 202 224 233 220 210 237 250 254 263 271 275 279 281 282 285 283 287 287 286 290
196 191 187 187 216 241 235 217 237 217 228 225 205 204 199 209 222 222 221 218 214 210 210 201 202 224 238 224 208 231 248 255 265 273 278 283 289 287 284 284 290 295 291 287
265 167 163 248 270 268 271 261 257 227 228 233 213 201 189 203 216 216 218 217 215 214 211 201 198 219 237 232 221 229 245 250 256 270 280 286 292 296 297 291 283 285 289 291
238 190 203 257 275 300 304 288 278 273 255 250 229 203 198 203 214 211 214 215 213 212 206 194 201 218 232 233 234 237 238 235 251 267 277 286 287 289 298 297 286 281 274 267
233 195 198 238 248 228 271 293 314 299 275 248 221 219 212 204 216 213 218 218 210 208 198 200 210 221 232 232 238 242 232 221 238 264 277 283 291 295 297 301 306 290 276 282